Погода в Велиже

Россия / Смоленская область     55°36′19″N   31°11′43″E
темп.,
°C
ветер,
м/с
пор.,
м/с
влажн.,
%
обл.,
%
осадки,
мм/ч
давл.,
гПа
погр.,
м
15 мая, сб
сб1500:00+13вюв4998100 2.0 1006330
03:00+11вюв269934 2.6 1005149
06:00+10юв2510050 1.1 1005169
09:00+15ю368540 1.1 1005569
12:00+17ююз357364 1.3 10051077
15:00+17юз468046 7.6 1005933
18:00+17ююз358498 2.5 1005613
21:00+13юз229482 5.1 100626
16 мая, вс
вс1600:00+12ю279894 0.8 1007183
03:00+10юз239833 1.3 100876
06:00+10зюз249857 0.0 1009103
09:00+15зюз238469 0.0 1011413
12:00+19юз33556 0.0 10111375
15:00+21ююз345090 0.1 10112024
18:00+17ююз368215 1.0 1011608
21:00+13ююв23950 1.2 101254
17 мая, пн
пн1700:00+12юв2597100 0.0 101292
03:00+11юв2797100 0.0 1011127
06:00+12юв3896100 0.0 1011207
09:00+16юв4880100 0.0 1011417
12:00+21юв4655100 0.1 10091335
15:00+19юв2682100 1.3 1007251
18:00+15сз379899 10.1 1005286
21:00+14сз3897100 13.0 1006442
18 мая, вт
вт1800:00+12зсз2599100 1.6 1005175
03:00+12сз2599100 1.6 1005166
06:00+12сз2499100 0.0 1005186
09:00+13зсз2393100 0.1 1005361
12:00+17зсз1274100 0.3 1005852
15:00+17з2384100 1.6 1005254
18:00+17зсз2476100 0.5 1004891
21:00+13ююз228588 0.5 100513
19 мая, ср
ср1900:00+11з269592 0.0 1006128
03:00+10зсз239790 0.0 100652
06:00+10сз2795100 0.0 1006224
09:00+13сз3682100 0.0 1007515
12:00+14сз4665100 0.0 1008834
15:00+17зсз4652100 0.0 10081589
18:00+16зсз2560100 0.0 10091327
21:00+11зсз2281100 0.1 101022